Dewpoint
-7 -6 -6 -6 -3 -1 -0 0 2 1 -1 4 4 6 6 5 5 4 2 5 5 6 6 7 6 6 2 3 0 1 1 3 4 2 3 3 -2 -2 -1 6 4 9 7 7
-6 -5 -4 -3 -3 -2 -0 1 1 0 0 3 3 5 5 6 5 5 3 5 5 5 6 7 7 7 4 3 4 2 4 7 8 7 5 4 4 0 -1 4 6 7 9 8
-5 -4 -3 -2 -2 -1 1 1 2 0 2 2 3 3 6 7 5 5 3 3 4 5 6 6 7 8 6 4 4 3 5 8 6 7 5 7 8 8 5 5 7 8 8 7
-5 -4 -3 -3 -1 -0 1 1 0 0 2 2 2 2 5 6 7 4 3 3 4 4 7 7 8 8 8 5 4 3 5 7 8 7 8 9 9 7 8 8 7 7 7 6
-4 -4 -3 -2 -1 0 1 1 0 0 1 0 2 2 3 6 6 6 5 4 3 4 5 6 8 8 8 7 4 5 5 8 8 8 9 9 9 7 6 7 7 8 6 6
-4 -4 -3 -3 -1 -0 1 0 0 1 1 1 3 4 2 6 5 5 4 4 4 5 5 4 6 5 6 6 6 7 7 9 8 9 8 9 10 7 7 6 6 6 9 6
-4 -3 -3 -2 -1 0 0 0 1 0 1 2 2 2 4 5 6 6 4 4 5 3 4 4 5 6 8 8 7 6 8 8 7 8 8 11 7 5 4 6 5 4 1 2
-6 -4 -3 -2 -1 -1 0 1 -0 -1 1 0 1 3 4 4 4 6 4 4 4 4 5 9 9 8 10 10 9 8 6 7 8 9 9 7 6 5 5 4 3 2 1 1
-8 -8 -4 -3 -2 -2 -0 0 0 -0 -1 -1 -1 3 5 5 6 6 6 4 5 5 8 8 9 9 9 10 9 7 7 6 6 5 8 10 6 3 -0 -1 3 -1 0 1
-11 -8 -8 -6 -4 -2 -1 0 0 -0 -1 -1 -1 1 4 4 5 6 6 7 8 6 8 9 8 9 6 10 9 9 8 6 8 5 6 6 4 0 -1 3 4 -0 -0 -1
-14 -12 -8 -8 -7 -2 -0 0 1 1 -1 -0 -1 0 5 4 6 7 6 8 8 8 9 9 7 6 5 6 6 8 8 8 7 5 7 8 2 -1 3 1 0 0 -2 -1
-12 -14 -10 -8 -7 -2 0 0 1 1 0 0 1 2 6 6 6 6 8 6 7 7 8 8 6 6 4 5 8 5 7 6 7 7 6 4 2 -1 -1 -1 -1 -2 -2 -1
-10 -12 -11 -8 -3 -1 -0 0 0 1 0 1 2 3 6 6 5 5 8 7 7 7 6 7 6 5 4 5 6 6 4 4 5 5 4 3 1 0 -1 -2 -2 -1 -1 -1
-11 -10 -8 -6 -2 -1 -0 0 0 1 -0 1 3 3 4 6 7 7 7 8 8 7 7 7 7 5 4 5 5 6 5 4 5 4 3 3 2 1 0 0 -1 -1 -1 -1
-9 -10 -8 -4 -2 -0 -0 -0 1 1 -0 0 2 4 5 6 5 6 7 7 7 8 8 7 8 6 5 5 4 4 4 5 5 5 3 3 2 1 -0 0 -0 -1 -1 -1
-7 -9 -8 -3 -2 -0 -1 1 -1 0 0 -0 2 3 5 5 5 6 5 7 8 7 7 7 8 7 5 5 5 2 2 2 2 3 2 1 0 0 -0 0 -0 -1 -1 -2
-6 -8 -5 -2 -1 -0 -1 -0 1 0 -0 1 1 2 4 6 6 6 6 4 6 7 6 6 7 7 7 5 6 3 1 2 2 1 2 2 1 0 -0 -0 -1 -1 -2 -3
-6 -6 -4 -2 -2 -1 -1 -2 -1 -0 -0 1 1 2 3 5 5 4 6 5 5 5 6 6 6 6 6 6 4 2 1 0 2 2 1 1 1 -1 -1 -1 -1 -2 -3 -4
-5 -4 -2 -2 -1 -1 -2 -1 0 0 0 0 1 3 4 4 4 4 5 4 3 5 5 6 5 6 6 5 3 3 0 0 0 2 1 1 -0 -1 -1 -1 -2 -2 -4 -4
-4 -2 -2 -1 -1 -1 -1 0 0 -0 1 1 1 2 3 3 3 3 3 3 3 3 4 5 5 5 3 2 2 1 1 -1 -1 -0 -0 -1 -1 -2 -3 -2 -3 -3 -5 -5
-2 -2 -1 -2 -2 -1 -0 -0 -1 -1 0 0 3 2 3 3 3 3 3 2 3 4 4 4 3 3 2 2 1 1 0 -0 -0 -1 -1 -1 -1 -3 -3 -4 -5 -5 -5 -7
-3 -3 -2 -2 -2 -1 -1 -1 -0 -0 1 1 2 3 2 3 2 2 2 3 3 4 3 2 3 1 -1 2 1 0 -0 -2 -2 -1 -2 -3 -2 -2 -3 -4 -5 -6 -11 -15
-3 -3 -1 -1 -2 -2 -0 1 1 2 1 2 2 2 1 2 2 2 2 3 3 1 3 3 2 -1 -1 1 -1 -2 -3 -3 -3 -3 -4 -4 -4 -4 -4 -5 -6 -11 -14 -13
-2 -2 -2 -2 -1 -2 -0 -0 0 -1 2 2 2 1 1 1 1 1 3 2 2 3 3 2 -0 -2 -3 -3 -1 -2 -2 -4 -4 -4 -4 -4 -4 -4 -5 -6 -8 -13 -11 -11
-2 -2 -1 -1 -3 -2 -0 -0 -1 -1 2 2 0 -0 -1 0 1 -0 1 1 2 2 1 -0 -3 -4 -4 -4 -3 -1 -1 -2 -4 -4 -4 -4 -4 -5 -5 -7 -11 -11 -11 -12
-1 -1 -2 -2 -0 -2 -0 0 1 1 2 1 0 1 2 1 -0 0 0 1 1 0 -1 -4 -6 -5 -5 -4 -3 -3 -1 -2 -4 -5 -4 -5 -5 -6 -8 -9 -10 -11 -13 -13
-2 -2 -1 -1 -1 -0 0 1 2 2 0 2 1 2 2 -1 -0 -0 -1 0 -1 -2 -3 -4 -5 -6 -4 -3 -3 -3 -4 -5 -5 -5 -6 -6 -6 -7 -6 -7 -8 -11 -11 -10
Wind_Speed
21 20 19 18 14 12 12 11 5 9 9 12 17 18 28 40 28 24 12 5 5 7 8 5 6 7 10 2 15 8 11 6 7 17 5 6 11 17 15 5 4 3 5 5
21 19 18 17 16 15 15 9 21 28 21 10 19 23 30 35 23 21 12 11 8 6 6 3 7 5 5 7 6 9 6 3 2 6 4 3 1 2 5 5 4 8 5 4
20 18 17 16 16 16 19 11 4 15 26 37 22 27 31 26 52 29 36 7 11 3 6 5 3 6 4 7 5 7 7 4 7 9 6 3 3 3 3 6 4 5 6 6
20 19 18 16 17 16 21 15 6 13 6 18 25 33 23 32 26 37 39 28 20 16 5 7 8 4 1 4 5 5 5 5 5 4 6 5 5 2 1 1 3 6 6 9
20 20 18 17 18 18 26 9 6 11 22 33 22 33 36 36 34 25 23 23 29 20 22 18 11 8 5 6 3 6 4 4 2 2 5 8 7 6 5 1 2 3 4 6
19 19 18 18 20 21 17 18 27 22 17 13 12 22 33 24 35 37 44 32 13 17 28 23 17 23 20 8 9 9 8 6 4 5 3 1 6 11 8 3 1 6 7 5
18 19 20 18 20 20 26 28 18 7 9 11 18 24 30 28 25 28 30 40 23 38 12 23 22 21 18 9 8 9 7 8 4 4 4 6 6 8 11 11 12 9 4 8
19 19 19 18 19 20 25 34 28 9 7 15 21 28 26 33 38 26 26 34 45 33 18 4 1 3 5 11 8 10 6 6 3 6 4 4 3 6 9 10 10 9 9 7
18 19 19 19 19 20 25 33 28 15 7 16 27 27 21 19 20 20 37 37 39 27 3 4 8 7 6 9 12 7 5 5 5 3 6 8 7 5 11 6 5 7 14 17
18 19 21 21 21 23 24 31 34 23 11 32 33 20 23 39 29 16 17 26 18 38 8 7 4 5 6 8 14 7 5 3 8 3 3 6 6 5 17 8 7 8 25 27
18 19 21 21 23 22 24 29 33 34 17 36 44 49 41 34 28 15 21 17 8 11 12 6 4 4 6 5 7 12 7 7 4 3 3 7 12 3 11 6 8 17 26 23
18 20 21 22 23 22 22 26 27 32 33 36 31 37 43 33 30 30 14 16 14 9 5 4 4 5 4 7 8 4 6 7 7 10 7 5 10 7 11 25 28 26 27 23
19 20 20 22 22 22 20 23 26 24 21 40 37 27 21 35 39 30 6 15 17 12 13 4 3 4 4 5 4 4 1 4 5 5 5 6 17 17 25 26 24 23 23 22
20 20 20 20 23 21 16 15 26 26 13 6 9 28 28 24 29 38 36 13 21 23 9 2 2 3 3 4 5 5 5 9 7 2 4 11 12 26 27 23 22 24 19 15
20 20 19 18 22 17 16 18 23 32 15 4 10 9 17 10 22 13 13 17 25 19 3 2 4 3 3 1 3 3 7 6 7 5 13 13 15 27 26 26 23 19 17 17
19 19 18 18 19 14 12 6 17 27 24 8 3 5 12 15 27 21 22 8 17 13 9 3 5 1 2 3 3 4 9 22 25 8 24 23 26 29 28 26 22 21 18 14
18 17 17 18 19 14 15 7 5 6 6 6 3 3 10 16 15 10 8 12 7 4 6 3 3 2 4 2 3 3 11 25 27 27 28 24 31 27 27 27 24 20 18 15
16 16 15 15 16 15 21 23 29 24 13 8 3 1 2 12 4 4 8 6 2 6 4 4 3 5 4 3 8 8 17 19 23 32 29 29 26 25 23 22 23 20 17 14
14 13 12 11 10 9 15 15 13 20 12 3 3 5 4 9 7 7 5 4 2 1 2 1 6 3 4 7 14 19 15 15 21 24 20 30 32 29 27 24 19 17 16 11
13 10 6 5 6 9 9 8 6 8 7 6 3 6 3 10 5 3 3 4 1 2 3 4 2 2 14 14 19 19 20 23 29 31 30 31 30 29 27 20 17 17 15 11
13 7 5 8 8 6 7 5 6 5 3 5 6 7 7 5 4 3 3 2 1 1 2 4 2 3 5 24 23 20 15 18 20 22 25 24 25 27 25 23 19 15 10 7
9 5 6 5 4 6 4 3 1 3 4 3 3 9 11 8 6 4 2 2 1 2 5 3 3 4 12 34 26 22 23 19 17 19 19 17 21 26 26 23 17 12 10 9
13 6 3 5 6 4 3 4 3 3 3 6 13 6 8 6 7 3 2 3 2 4 1 3 5 3 13 32 30 26 23 25 25 23 20 21 25 24 21 18 14 15 12 8
7 7 4 3 3 4 4 3 2 4 5 18 22 5 4 6 3 3 4 2 3 2 2 6 3 16 21 28 35 35 30 26 25 23 20 23 24 22 18 16 15 12 7 4
5 5 5 7 7 6 7 7 9 13 19 22 8 8 6 3 3 1 4 3 3 6 6 3 11 27 25 25 25 30 35 30 28 24 27 28 25 23 18 15 13 9 6 6
6 5 4 4 2 3 5 8 7 7 26 18 7 3 3 1 4 4 6 9 8 4 4 13 20 29 27 26 25 26 34 32 27 31 31 27 22 17 17 15 10 7 6 7
6 5 10 12 8 6 5 6 6 12 22 3 3 4 6 4 4 5 5 5 4 7 10 14 15 22 23 26 25 27 32 33 33 30 25 20 17 16 16 11 8 7 6 6
Wind_Direction
261 261 261 261 262 269 266 274 252 299 250 204 233 232 224 219 228 233 250 259 232 227 191 191 191 216 208 253 213 192 204 182 202 229 220 223 234 212 195 144 228 154 156 270
257 257 258 257 258 258 251 248 253 263 240 234 232 249 234 222 217 219 230 223 217 206 215 207 210 204 194 213 200 171 162 219 133 328 309 4 330 242 161 132 130 200 160 261
252 252 251 258 259 244 233 235 249 248 216 227 241 242 228 233 218 221 224 231 237 228 243 257 242 216 208 211 201 151 124 158 165 205 208 155 230 348 347 163 142 189 194 186
247 246 243 250 248 237 226 223 219 232 239 220 228 237 254 218 214 210 214 225 231 217 220 221 229 213 280 264 191 167 149 186 178 199 162 162 183 182 111 169 133 205 194 186
241 239 239 251 237 224 235 221 205 240 256 255 274 228 232 218 210 194 207 209 214 227 233 219 203 168 200 209 208 189 176 207 124 249 199 210 228 194 156 292 132 238 111 178
244 237 245 254 239 230 239 235 251 253 255 251 261 238 230 224 204 214 207 207 204 203 228 221 226 209 208 205 189 201 162 142 118 223 181 172 270 217 170 173 43 189 193 175
243 241 248 256 243 240 247 245 236 249 272 252 250 256 236 212 213 209 200 204 197 215 243 236 232 238 206 193 264 178 155 144 143 172 105 223 231 199 207 204 210 189 194 158
244 245 248 259 250 251 247 250 238 227 260 261 293 226 236 225 218 217 213 211 212 204 200 125 125 195 202 219 232 249 173 134 136 148 207 293 265 213 200 183 226 188 185 147
247 247 250 253 255 258 250 250 233 243 268 247 263 253 221 214 214 222 227 221 212 198 141 155 184 201 173 163 172 216 104 112 141 144 166 214 216 231 173 101 239 192 156 154
249 252 253 253 258 253 255 254 250 238 254 264 270 270 224 212 218 220 199 192 194 195 196 195 151 204 184 165 167 160 129 76 174 145 201 283 246 245 161 151 233 183 171 165
250 252 254 258 264 262 254 251 244 244 259 270 271 270 240 202 215 203 201 179 189 180 182 188 186 175 200 128 167 173 153 145 173 101 107 264 205 153 174 191 132 160 150 150
252 252 254 256 264 274 261 251 244 257 250 264 276 284 226 229 201 220 199 184 177 170 156 185 170 217 151 144 181 178 187 174 167 182 197 206 200 149 156 149 146 148 147 148
253 253 255 254 256 269 247 253 249 238 271 278 257 260 213 226 217 220 222 193 174 168 180 160 193 188 146 150 201 98 170 141 151 113 203 175 174 158 156 154 146 148 143 139
252 253 255 261 255 253 251 257 251 252 256 268 249 228 247 206 195 204 219 208 182 165 152 110 126 160 179 184 151 143 184 153 153 183 140 168 180 170 157 149 144 139 141 144
253 253 253 259 270 243 258 264 258 248 250 296 296 210 218 193 208 188 214 209 182 169 112 146 197 272 112 57 81 193 183 160 166 202 176 171 186 183 164 160 156 157 149 133
251 251 254 259 271 248 263 265 256 246 244 263 267 217 186 172 187 194 188 169 173 161 144 188 156 347 107 113 180 237 184 179 177 164 161 163 156 154 159 159 157 150 153 151
245 243 245 253 268 238 234 236 186 163 233 227 246 243 176 170 173 159 167 247 4 123 118 109 129 117 67 65 194 205 178 181 175 169 154 142 158 157 158 153 146 148 141 135
235 234 242 258 279 255 262 268 261 260 268 229 239 276 155 153 104 83 118 112 351 41 90 122 112 109 103 215 237 161 162 135 166 172 174 175 162 153 152 153 150 145 142 150
220 225 240 256 259 250 255 255 248 258 230 258 234 147 171 140 83 85 75 90 69 50 82 216 125 134 203 220 197 196 150 159 150 168 167 159 156 154 155 161 161 164 156 168
205 213 231 236 214 241 254 231 214 214 196 230 243 143 141 132 105 99 104 82 118 111 217 111 99 243 243 223 192 182 154 144 159 150 152 157 158 160 161 166 174 178 176 178
195 207 233 265 281 247 228 229 207 174 225 228 204 144 119 113 113 118 99 146 172 113 208 133 157 272 233 208 193 195 184 183 179 173 172 175 176 167 165 163 164 174 180 179
202 219 252 281 265 240 231 218 138 213 217 242 162 149 112 105 100 95 122 115 93 177 168 116 223 226 204 190 187 182 188 188 189 190 178 182 182 182 181 172 170 179 173 176
192 217 255 207 230 254 224 192 216 222 179 219 162 135 116 101 88 95 108 91 164 131 21 226 225 225 191 184 175 175 173 174 170 169 170 165 166 171 179 173 179 175 168 177
195 187 240 210 230 246 225 217 230 258 229 155 151 105 110 127 115 144 111 141 107 106 206 239 224 213 190 192 195 190 182 175 173 169 171 177 176 171 171 174 168 166 174 213
213 216 221 217 237 232 236 257 298 289 178 153 118 74 93 84 111 122 108 119 200 211 222 225 216 183 188 191 193 196 194 182 181 184 179 174 173 172 169 169 165 175 219 249
207 249 265 273 300 302 271 262 246 263 159 145 71 85 74 153 139 141 188 159 207 222 199 203 193 191 192 194 189 188 191 189 181 174 171 168 169 178 175 170 181 206 246 272
210 225 229 253 277 265 274 309 266 182 155 129 126 126 193 116 142 197 187 200 214 211 201 210 208 191 189 190 186 177 172 168 165 164 166 169 172 173 179 190 211 240 252 247
Height
1486 1487 1488 1491 1494 1497 1499 1503 1504 1500 1506 1517 1506 1491 1489 1498 1498 1499 1501 1497 1491 1489 1483 1482 1481 1482 1478 1475 1478 1485 1485 1495 1506 1492 1483 1483 1484 1482 1488 1523 1518 1517 1538 1524
1478 1479 1482 1484 1487 1491 1497 1499 1498 1496 1505 1499 1489 1486 1481 1482 1485 1486 1493 1490 1485 1481 1483 1484 1477 1473 1471 1473 1474 1477 1479 1493 1507 1499 1488 1482 1485 1481 1480 1488 1502 1508 1526 1517
1472 1473 1475 1479 1484 1488 1493 1496 1490 1486 1488 1483 1482 1482 1469 1473 1474 1475 1485 1482 1480 1480 1478 1475 1473 1474 1471 1472 1472 1471 1472 1484 1490 1500 1490 1487 1490 1486 1481 1484 1517 1505 1507 1500
1466 1468 1472 1477 1480 1484 1487 1484 1480 1478 1468 1470 1471 1474 1465 1459 1458 1462 1471 1476 1473 1474 1476 1475 1474 1472 1472 1469 1468 1469 1472 1485 1482 1479 1479 1482 1484 1485 1485 1484 1485 1496 1490 1487
1460 1465 1468 1470 1473 1476 1475 1471 1473 1474 1463 1463 1462 1452 1450 1444 1449 1446 1451 1450 1457 1469 1467 1462 1468 1471 1471 1471 1469 1468 1468 1482 1480 1492 1478 1479 1480 1479 1479 1480 1482 1486 1485 1490
1453 1456 1460 1462 1465 1467 1463 1463 1465 1467 1452 1451 1449 1431 1426 1432 1437 1436 1435 1439 1456 1458 1450 1457 1458 1458 1459 1461 1464 1466 1468 1477 1487 1494 1479 1479 1488 1476 1473 1472 1473 1479 1488 1477
1446 1449 1452 1453 1455 1456 1457 1457 1460 1454 1441 1443 1432 1433 1429 1422 1424 1425 1429 1439 1444 1435 1448 1456 1457 1454 1454 1456 1456 1453 1461 1469 1482 1496 1488 1498 1470 1458 1461 1470 1471 1469 1470 1473
1440 1442 1444 1444 1445 1449 1449 1449 1450 1447 1438 1432 1421 1417 1421 1420 1420 1420 1421 1427 1423 1438 1447 1452 1459 1458 1460 1451 1454 1454 1447 1460 1481 1488 1492 1475 1461 1457 1460 1465 1466 1461 1464 1468
1433 1435 1436 1438 1440 1442 1442 1441 1439 1438 1435 1412 1417 1411 1405 1405 1408 1416 1417 1424 1429 1431 1435 1446 1449 1453 1438 1443 1452 1448 1446 1449 1465 1492 1484 1483 1459 1447 1449 1454 1474 1456 1459 1466
1426 1428 1429 1430 1432 1434 1434 1431 1431 1430 1423 1406 1411 1405 1392 1396 1403 1404 1403 1411 1417 1420 1427 1426 1433 1439 1426 1436 1435 1446 1454 1462 1462 1485 1484 1468 1446 1443 1449 1473 1469 1450 1454 1460
1420 1421 1422 1422 1423 1424 1424 1422 1422 1421 1412 1400 1396 1391 1385 1383 1384 1388 1391 1405 1404 1407 1409 1419 1418 1425 1420 1423 1425 1425 1440 1454 1465 1475 1475 1469 1441 1442 1451 1447 1448 1449 1454 1459
1414 1415 1415 1415 1416 1416 1415 1413 1415 1413 1408 1386 1385 1378 1374 1374 1371 1381 1382 1380 1388 1391 1400 1410 1410 1417 1408 1415 1428 1418 1434 1429 1443 1443 1447 1433 1434 1433 1439 1442 1445 1451 1454 1460
1407 1408 1408 1409 1409 1410 1409 1406 1407 1406 1402 1386 1381 1370 1363 1368 1370 1372 1374 1381 1377 1384 1389 1395 1396 1401 1401 1413 1417 1415 1415 1418 1426 1432 1428 1429 1433 1436 1438 1443 1445 1450 1453 1458
1399 1400 1401 1402 1403 1401 1401 1400 1399 1400 1400 1386 1365 1362 1363 1360 1359 1369 1374 1369 1375 1380 1388 1390 1389 1394 1389 1400 1399 1406 1409 1413 1421 1425 1421 1427 1430 1433 1435 1442 1446 1450 1454 1457
1392 1393 1394 1395 1394 1394 1394 1393 1393 1393 1395 1383 1369 1360 1358 1355 1360 1362 1367 1370 1370 1376 1385 1390 1393 1391 1389 1393 1397 1402 1399 1406 1415 1421 1412 1419 1424 1429 1434 1439 1444 1448 1451 1456
1385 1385 1386 1386 1388 1389 1389 1387 1384 1384 1385 1383 1367 1357 1355 1352 1359 1363 1366 1365 1368 1372 1381 1383 1385 1387 1389 1396 1400 1391 1391 1395 1398 1403 1410 1416 1421 1427 1432 1436 1441 1444 1449 1454
1379 1380 1381 1382 1382 1381 1382 1379 1379 1380 1381 1377 1368 1355 1353 1352 1355 1360 1364 1367 1363 1367 1375 1378 1385 1389 1387 1396 1396 1385 1388 1391 1397 1402 1407 1416 1421 1426 1431 1435 1439 1443 1447 1451
1375 1375 1377 1378 1378 1377 1375 1372 1371 1373 1372 1368 1356 1350 1350 1351 1353 1357 1363 1369 1373 1372 1376 1380 1383 1388 1390 1396 1390 1388 1391 1392 1395 1401 1405 1411 1419 1424 1429 1433 1437 1441 1444 1449
1372 1373 1373 1373 1370 1369 1368 1368 1367 1363 1366 1357 1348 1344 1348 1347 1353 1360 1368 1371 1379 1378 1376 1378 1382 1386 1389 1383 1381 1388 1386 1387 1393 1400 1403 1407 1413 1420 1425 1430 1435 1439 1443 1448
1369 1371 1371 1367 1364 1365 1364 1361 1359 1354 1352 1351 1344 1339 1343 1344 1356 1369 1374 1375 1378 1380 1382 1379 1383 1383 1378 1376 1375 1382 1386 1388 1391 1397 1403 1407 1412 1417 1422 1427 1431 1438 1441 1442
1364 1365 1364 1361 1361 1359 1356 1350 1350 1346 1345 1340 1335 1334 1336 1349 1357 1365 1370 1376 1377 1376 1378 1377 1382 1383 1375 1373 1372 1378 1383 1387 1391 1397 1401 1405 1409 1415 1420 1426 1430 1436 1438 1439
1360 1361 1360 1360 1359 1352 1348 1341 1338 1339 1336 1331 1329 1331 1337 1347 1353 1362 1374 1374 1376 1376 1375 1380 1381 1365 1362 1365 1366 1371 1377 1383 1388 1394 1401 1406 1411 1415 1420 1423 1429 1433 1433 1437
1359 1360 1358 1356 1351 1346 1340 1333 1334 1331 1327 1326 1328 1332 1338 1349 1356 1364 1367 1369 1375 1376 1378 1370 1358 1352 1355 1359 1363 1369 1373 1378 1385 1393 1398 1404 1410 1415 1418 1421 1426 1428 1430 1435
1356 1356 1353 1349 1343 1339 1332 1331 1328 1323 1323 1324 1328 1330 1337 1346 1355 1361 1367 1372 1372 1379 1379 1363 1351 1348 1352 1354 1360 1365 1370 1377 1384 1391 1397 1404 1409 1413 1417 1421 1424 1427 1431 1434
1350 1349 1342 1339 1332 1329 1329 1327 1323 1323 1323 1323 1326 1330 1336 1344 1353 1355 1364 1372 1371 1365 1355 1351 1342 1344 1347 1350 1355 1363 1368 1375 1382 1389 1395 1403 1408 1412 1418 1420 1421 1426 1430 1432
1344 1340 1335 1331 1330 1328 1326 1323 1321 1320 1321 1325 1326 1334 1342 1346 1348 1352 1356 1362 1356 1347 1347 1340 1341 1341 1343 1350 1355 1360 1366 1373 1381 1388 1395 1403 1409 1414 1417 1418 1421 1425 1428 1431
1335 1331 1330 1332 1330 1326 1323 1320 1318 1318 1320 1326 1330 1336 1336 1341 1350 1349 1345 1345 1338 1330 1332 1336 1337 1339 1345 1354 1358 1362 1367 1375 1384 1391 1396 1401 1407 1413 1416 1418 1420 1423 1425 1428